Time,TemperatureF,DewpointF,PressureIn,WindDirection,WindDirectionDegrees,WindSpeedMPH,WindSpeedGustMPH,Humidity,HourlyPrecipIn,Conditions,Clouds,dailyrainin,SoftwareType,DateUTC
2013-01-18 00:07:00,25.0,20.0,29.86,ESE,120,0.0,1.0,81,0.00,,,0.00,weatherlink.com 1.10,2013-01-18 06:07:00,
2013-01-18 00:22:00,25.7,20.0,29.87,ESE,112,0.0,1.0,79,0.00,,,0.00,weatherlink.com 1.10,2013-01-18 06:22:00,
2013-01-18 00:37:00,24.7,19.0,29.87,SE,130,0.0,1.0,80,0.00,,,0.00,weatherlink.com 1.10,2013-01-18 06:37:00,
2013-01-18 00:52:00,23.9,19.0,29.87,SE,129,0.0,0.0,82,0.00,,,0.00,weatherlink.com 1.10,2013-01-18 06:52:00,
2013-01-18 01:07:00,25.1,20.0,29.87,ESE,114,0.0,1.0,81,0.00,,,0.00,weatherlink.com 1.10,2013-01-18 07:07:00,
2013-01-18 01:22:00,25.0,20.0,29.87,East,93,1.0,1.0,81,0.00,,,0.00,weatherlink.com 1.10,2013-01-18 07:22:00,
2013-01-18 01:37:00,24.8,19.0,29.87,SE,129,0.0,1.0,80,0.00,,,0.00,weatherlink.com 1.10,2013-01-18 07:37:00,
2013-01-18 01:52:00,23.9,19.0,29.87,SE,136,0.0,0.0,82,0.00,,,0.00,weatherlink.com 1.10,2013-01-18 07:52:00,
2013-01-18 02:07:00,23.2,19.0,29.88,SE,136,0.0,1.0,82,0.00,,,0.00,weatherlink.com 1.10,2013-01-18 08:07:00,
2013-01-18 02:22:00,23.2,19.0,29.88,SE,136,0.0,0.0,84,0.00,,,0.00,weatherlink.com 1.10,2013-01-18 08:22:00,
2013-01-18 02:37:00,23.3,19.0,29.87,SE,137,0.0,1.0,83,0.00,,,0.00,weatherlink.com 1.10,2013-01-18 08:37:00,
2013-01-18 02:52:00,23.6,19.0,29.87,SE,136,0.0,0.0,83,0.00,,,0.00,weatherlink.com 1.10,2013-01-18 08:52:00,
2013-01-18 03:07:00,23.8,19.0,29.87,SE,132,0.0,2.0,82,0.00,,,0.00,weatherlink.com 1.10,2013-01-18 09:07:00,
2013-01-18 03:22:00,24.4,20.0,29.86,SE,128,0.0,2.0,82,0.00,,,0.00,weatherlink.com 1.10,2013-01-18 09:22:00,
2013-01-18 03:37:00,24.5,19.0,29.86,SSE,149,0.0,1.0,81,0.00,,,0.00,weatherlink.com 1.10,2013-01-18 09:37:00,
2013-01-18 03:53:00,24.2,19.0,29.86,SE,134,2.0,2.0,82,0.00,,,0.00,weatherlink.com 1.10,2013-01-18 09:53:00,
2013-01-18 04:08:00,26.4,20.0,29.86,South,169,2.0,3.0,77,0.00,,,0.00,weatherlink.com 1.10,2013-01-18 10:08:00,
2013-01-18 04:23:00,26.9,20.0,29.86,SW,231,1.0,4.0,75,0.00,,,0.00,weatherlink.com 1.10,2013-01-18 10:23:00,
2013-01-18 04:38:00,27.1,20.0,29.85,SSW,211,3.0,4.0,74,0.00,,,0.00,weatherlink.com 1.10,2013-01-18 10:38:00,
2013-01-18 04:53:00,26.9,20.0,29.86,SW,219,0.0,4.0,75,0.00,,,0.00,weatherlink.com 1.10,2013-01-18 10:53:00,
2013-01-18 05:08:00,26.5,20.0,29.86,SSE,158,1.0,3.0,76,0.00,,,0.00,weatherlink.com 1.10,2013-01-18 11:08:00,
2013-01-18 05:23:00,26.3,20.0,29.86,South,190,2.0,3.0,76,0.00,,,0.00,weatherlink.com 1.10,2013-01-18 11:23:00,
2013-01-18 05:38:00,26.5,20.0,29.85,SSE,153,2.0,5.0,76,0.00,,,0.00,weatherlink.com 1.10,2013-01-18 11:38:00,
2013-01-18 05:53:00,26.7,20.0,29.84,SE,142,0.0,3.0,75,0.00,,,0.00,weatherlink.com 1.10,2013-01-18 11:53:00,
2013-01-18 06:08:00,26.8,20.0,29.84,SE,136,3.0,4.0,75,0.00,,,0.00,weatherlink.com 1.10,2013-01-18 12:08:00,
2013-01-18 06:23:00,26.9,20.0,29.84,SSE,149,3.0,5.0,75,0.00,,,0.00,weatherlink.com 1.10,2013-01-18 12:23:00,
2013-01-18 06:38:00,26.9,20.0,29.83,SE,134,0.0,5.0,75,0.00,,,0.00,weatherlink.com 1.10,2013-01-18 12:38:00,
2013-01-18 06:53:00,26.8,20.0,29.84,SW,215,0.0,3.0,74,0.00,,,0.00,weatherlink.com 1.10,2013-01-18 12:53:00,
2013-01-18 07:08:00,26.9,20.0,29.85,SSW,207,0.0,2.0,74,0.00,,,0.00,weatherlink.com 1.10,2013-01-18 13:08:00,
2013-01-18 07:23:00,27.0,20.0,29.85,ESE,113,1.0,2.0,74,0.00,,,0.00,weatherlink.com 1.10,2013-01-18 13:23:00,
2013-01-18 07:38:00,27.7,20.0,29.84,SSE,148,1.0,3.0,73,0.00,,,0.00,weatherlink.com 1.10,2013-01-18 13:38:00,
2013-01-18 07:53:00,29.0,21.0,29.84,South,176,3.0,4.0,71,0.00,,,0.00,weatherlink.com 1.10,2013-01-18 13:53:00,
2013-01-18 08:08:00,30.0,21.0,29.84,SE,132,1.0,7.0,69,0.00,,,0.00,weatherlink.com 1.10,2013-01-18 14:08:00,
2013-01-18 08:23:00,31.5,22.0,29.84,SE,135,3.0,5.0,67,0.00,,,0.00,weatherlink.com 1.10,2013-01-18 14:23:00,
2013-01-18 08:38:00,32.6,22.0,29.83,South,180,4.0,8.0,64,0.00,,,0.00,weatherlink.com 1.10,2013-01-18 14:38:00,
2013-01-18 08:53:00,33.7,22.0,29.83,South,188,2.0,9.0,62,0.00,,,0.00,weatherlink.com 1.10,2013-01-18 14:53:00,
2013-01-18 09:08:00,35.0,22.0,29.82,SSW,194,4.0,8.0,60,0.00,,,0.00,weatherlink.com 1.10,2013-01-18 15:08:00,
2013-01-18 09:23:00,36.1,23.0,29.82,ESE,117,4.0,11.0,59,0.00,,,0.00,weatherlink.com 1.10,2013-01-18 15:23:00,
2013-01-18 09:38:00,37.1,23.0,29.81,WSW,245,2.0,12.0,57,0.00,,,0.00,weatherlink.com 1.10,2013-01-18 15:38:00,
2013-01-18 09:53:00,38.3,24.0,29.81,SSW,211,3.0,12.0,56,0.00,,,0.00,weatherlink.com 1.10,2013-01-18 15:53:00,
2013-01-18 10:08:00,39.5,24.0,29.80,SSW,211,5.0,15.0,54,0.00,,,0.00,weatherlink.com 1.10,2013-01-18 16:08:00,
2013-01-18 10:23:00,40.9,24.0,29.80,WSW,243,6.0,21.0,51,0.00,,,0.00,weatherlink.com 1.10,2013-01-18 16:23:00,
2013-01-18 10:39:00,41.8,24.0,29.79,SW,214,8.0,15.0,49,0.00,,,0.00,weatherlink.com 1.10,2013-01-18 16:39:00,
2013-01-18 10:54:00,42.9,25.0,29.77,SSW,205,9.0,13.0,49,0.00,,,0.00,weatherlink.com 1.10,2013-01-18 16:54:00,
2013-01-18 11:09:00,43.7,25.0,29.77,SW,222,11.0,17.0,48,0.00,,,0.00,weatherlink.com 1.10,2013-01-18 17:09:00,
2013-01-18 11:24:00,44.0,25.0,29.75,SE,142,3.0,18.0,48,0.00,,,0.00,weatherlink.com 1.10,2013-01-18 17:24:00,
2013-01-18 11:39:00,44.9,26.0,29.74,SSW,207,7.0,19.0,48,0.00,,,0.00,weatherlink.com 1.10,2013-01-18 17:39:00,
2013-01-18 11:54:00,45.6,26.0,29.72,SSW,198,10.0,18.0,47,0.00,,,0.00,weatherlink.com 1.10,2013-01-18 17:54:00,
2013-01-18 12:09:00,46.4,26.0,29.71,SW,221,9.0,23.0,45,0.00,,,0.00,weatherlink.com 1.10,2013-01-18 18:09:00,
2013-01-18 12:24:00,47.6,26.0,29.69,West,270,6.0,19.0,43,0.00,,,0.00,weatherlink.com 1.10,2013-01-18 18:24:00,
2013-01-18 12:39:00,48.5,26.0,29.68,SSW,198,9.0,19.0,42,0.00,,,0.00,weatherlink.com 1.10,2013-01-18 18:39:00,
2013-01-18 12:54:00,49.9,26.0,29.67,SSW,203,3.0,19.0,40,0.00,,,0.00,weatherlink.com 1.10,2013-01-18 18:54:00,
2013-01-18 13:09:00,50.3,27.0,29.66,SE,129,3.0,11.0,40,0.00,,,0.00,weatherlink.com 1.10,2013-01-18 19:09:00,
2013-01-18 13:24:00,51.1,27.0,29.65,SSE,162,6.0,11.0,39,0.00,,,0.00,weatherlink.com 1.10,2013-01-18 19:24:00,
2013-01-18 13:39:00,52.5,25.0,29.64,South,188,9.0,16.0,34,0.00,,,0.00,weatherlink.com 1.10,2013-01-18 19:39:00,
2013-01-18 13:54:00,53.1,25.0,29.63,SW,215,12.0,16.0,33,0.00,,,0.00,weatherlink.com 1.10,2013-01-18 19:54:00,
2013-01-18 14:09:00,53.7,24.0,29.62,SW,225,11.0,20.0,32,0.00,,,0.00,weatherlink.com 1.10,2013-01-18 20:09:00,
2013-01-18 14:24:00,53.9,24.0,29.61,SSW,194,9.0,19.0,32,0.00,,,0.00,weatherlink.com 1.10,2013-01-18 20:24:00,
2013-01-18 14:39:00,54.3,25.0,29.60,SSE,165,12.0,20.0,32,0.00,,,0.00,weatherlink.com 1.10,2013-01-18 20:39:00,
2013-01-18 14:55:00,54.9,25.0,29.59,SSW,206,18.0,18.0,32,0.00,,,0.00,weatherlink.com 1.10,2013-01-18 20:55:00,
2013-01-18 15:10:00,55.4,26.0,29.58,WNW,287,5.0,17.0,32,0.00,,,0.00,weatherlink.com 1.10,2013-01-18 21:10:00,
2013-01-18 15:25:00,55.9,25.0,29.57,SW,231,6.0,18.0,31,0.00,,,0.00,weatherlink.com 1.10,2013-01-18 21:25:00,
2013-01-18 15:40:00,55.9,25.0,29.57,South,190,11.0,23.0,30,0.00,,,0.00,weatherlink.com 1.10,2013-01-18 21:40:00,
2013-01-18 15:55:00,56.1,26.0,29.56,South,184,8.0,15.0,31,0.00,,,0.00,weatherlink.com 1.10,2013-01-18 21:55:00,
2013-01-18 16:10:00,55.7,25.0,29.55,ESE,110,1.0,15.0,31,0.00,,,0.00,weatherlink.com 1.10,2013-01-18 22:10:00,
2013-01-18 16:25:00,55.3,26.0,29.55,SE,135,5.0,12.0,32,0.00,,,0.00,weatherlink.com 1.10,2013-01-18 22:25:00,
2013-01-18 16:40:00,54.8,25.0,29.55,SE,127,5.0,9.0,32,0.00,,,0.00,weatherlink.com 1.10,2013-01-18 22:40:00,
2013-01-18 16:55:00,53.8,25.0,29.55,SSE,148,4.0,10.0,33,0.00,,,0.00,weatherlink.com 1.10,2013-01-18 22:55:00,
2013-01-18 17:10:00,52.4,25.0,29.55,SSW,198,4.0,17.0,35,0.00,,,0.00,weatherlink.com 1.10,2013-01-18 23:10:00,
2013-01-18 17:25:00,51.9,25.0,29.56,South,172,6.0,12.0,35,0.00,,,0.00,weatherlink.com 1.10,2013-01-18 23:25:00,
2013-01-18 17:40:00,51.0,25.0,29.55,South,170,6.0,13.0,36,0.00,,,0.00,weatherlink.com 1.10,2013-01-18 23:40:00,
2013-01-18 17:55:00,50.4,24.0,29.55,NW,318,3.0,12.0,36,0.00,,,0.00,weatherlink.com 1.10,2013-01-18 23:55:00,
2013-01-18 18:10:00,50.0,24.0,29.55,SSW,207,9.0,11.0,37,0.00,,,0.00,weatherlink.com 1.10,2013-01-19 00:10:00,
2013-01-18 18:25:00,49.7,25.0,29.55,SSW,204,6.0,15.0,38,0.00,,,0.00,weatherlink.com 1.10,2013-01-19 00:25:00,
2013-01-18 18:40:00,49.3,24.0,29.55,SSW,200,4.0,10.0,38,0.00,,,0.00,weatherlink.com 1.10,2013-01-19 00:40:00,
2013-01-18 18:55:00,49.0,25.0,29.55,SSW,195,5.0,12.0,39,0.00,,,0.00,weatherlink.com 1.10,2013-01-19 00:55:00,
2013-01-18 19:10:00,48.5,25.0,29.55,SSW,201,3.0,11.0,40,0.00,,,0.00,weatherlink.com 1.10,2013-01-19 01:10:00,
2013-01-18 19:25:00,48.1,25.0,29.54,South,186,6.0,11.0,41,0.00,,,0.00,weatherlink.com 1.10,2013-01-19 01:25:00,
2013-01-18 19:40:00,47.9,26.0,29.54,SE,145,5.0,13.0,42,0.00,,,0.00,weatherlink.com 1.10,2013-01-19 01:40:00,
2013-01-18 19:55:00,47.7,25.0,29.53,SSE,165,7.0,14.0,42,0.00,,,0.00,weatherlink.com 1.10,2013-01-19 01:55:00,
2013-01-18 20:10:00,47.5,26.0,29.53,SSW,197,9.0,12.0,43,0.00,,,0.00,weatherlink.com 1.10,2013-01-19 02:10:00,
2013-01-18 20:25:00,46.8,26.0,29.52,SSW,193,6.0,12.0,44,0.00,,,0.00,weatherlink.com 1.10,2013-01-19 02:25:00,
2013-01-18 20:40:00,46.2,26.0,29.52,SSE,148,5.0,18.0,46,0.00,,,0.00,weatherlink.com 1.10,2013-01-19 02:40:00,
2013-01-18 20:55:00,45.7,26.0,29.52,SSW,201,8.0,16.0,47,0.00,,,0.00,weatherlink.com 1.10,2013-01-19 02:55:00,
2013-01-18 21:10:00,45.3,26.0,29.51,SSE,161,7.0,16.0,48,0.00,,,0.00,weatherlink.com 1.10,2013-01-19 03:10:00,
2013-01-18 21:25:00,44.9,27.0,29.51,SSW,210,10.0,15.0,50,0.00,,,0.00,weatherlink.com 1.10,2013-01-19 03:25:00,
2013-01-18 21:40:00,44.5,27.0,29.51,SSW,201,4.0,16.0,51,0.00,,,0.00,weatherlink.com 1.10,2013-01-19 03:40:00,
2013-01-18 21:55:00,44.3,27.0,29.50,South,190,9.0,16.0,52,0.00,,,0.00,weatherlink.com 1.10,2013-01-19 03:55:00,
2013-01-18 22:10:00,44.2,28.0,29.50,SSW,203,10.0,17.0,53,0.00,,,0.00,weatherlink.com 1.10,2013-01-19 04:10:00,
2013-01-18 22:25:00,44.0,28.0,29.50,SSW,212,7.0,17.0,53,0.00,,,0.00,weatherlink.com 1.10,2013-01-19 04:25:00,
2013-01-18 22:40:00,43.9,28.0,29.50,SSW,207,6.0,16.0,54,0.00,,,0.00,weatherlink.com 1.10,2013-01-19 04:40:00,
2013-01-18 22:55:00,43.7,28.0,29.51,WSW,239,4.0,13.0,55,0.00,,,0.00,weatherlink.com 1.10,2013-01-19 04:55:00,
2013-01-18 23:10:00,43.5,28.0,29.51,WSW,240,8.0,9.0,55,0.00,,,0.00,weatherlink.com 1.10,2013-01-19 05:10:00,
2013-01-18 23:25:00,43.3,28.0,29.51,SW,221,8.0,13.0,56,0.00,,,0.00,weatherlink.com 1.10,2013-01-19 05:25:00,
2013-01-18 23:40:00,42.9,28.0,29.51,SW,215,5.0,7.0,57,0.00,,,0.00,weatherlink.com 1.10,2013-01-19 05:40:00,
2013-01-18 23:55:00,42.5,28.0,29.51,SSE,159,4.0,9.0,58,0.00,,,0.00,weatherlink.com 1.10,2013-01-19 05:55:00,